Showing default

METEOR 3-5, 21655

Orbit data source: Space-Track

METEOR 3-5, 21655 is a payload satellite owned by Rosgidromet (CIS) in LEO that was launched on Thu, 15 Aug 1991 UTC via a TSIKLON-3 launch vehicle from the Plesetsk Missile And Space Complex (PKMTR). Payload-class satellites include a variety of spacecraft equipped with specific instruments for various scientific and technological missions. These include communications satellites like Starlink; space stations such as the ISS; scientific satellites like the Hubble; Earth observation satellites from companies like Planet Labs, Umbra, and HawkEye 360; GPS; miniature CubeSats for education and research; and military/defense satellites.

Loading next visibility...
Identifier
21655, 1991-056A
Orbit
LEO
Country
Flag of CISCIS
Related business
Manufacturer
VNIIEM
Mission
Civil Weather
Bus & Motor
METEOR-3, Unknown motor
Mass
2,150 kg wet, 2,150 kg dry
Launch date (UTC)
1991-08-15 (34 years ago)
Launch vehicle
TSIKLON-3
Launch site
Plesetsk Missile And Space Complex (PKMTR)
Object type
Payload
Rocket body
Debris
Shape & HBR
Cyl + 2 Pan, 6.3 m
Radar Cross Section
21.153 m², Large (>1 m²)

Expand to show TLE details & history
Last TLE update: 10 hours ago

TLE from 10 hours ago
0 METEOR 3-5
1 21655U 91056A   26036.47885694 -.00000075  00000-0 -22631-3 0  9999
2 21655  82.5526 232.4214 0014347 105.7314 254.5392 13.17155597657234
Epoch: 2026-02-05T11:29Z
TLE epoch observation values (Epoch: 2026-02-05T11:29:33.239Z)
Latitude
-0.00003°
Longitude
-75.5976°
Altitude
1,201.323 km
Speed
7.252 km/s
True Right ascension
15h 29m 41s
True Declination
0° 00' 00"
Sunlit
Object was in daylight at epoch
Visualization orbit readout
Latitude
Unknown
Longitude
Unknown
Altitude
Unknown
Speed
Unknown
Apparent Right ascension
Unknown
Apparent Declination
Unknown
Sunlit
N/A
Visualization observer readout
Local Sidereal Time
23:37:59
Azimuth
Unknown
Elevation
Unknown
Doppler factor
Unknown
Orbital elements
Apogee altitude
1,203.711 km
Perigee altitude
1,181.986 km
Semi-major axis
7,570.985 km
Eccentricity
0.00143
Inclination
82.5526°
RAAN
232.4214°
Arg. of periapsis
105.7314°
True anomaly
254.38082°
Mean anomaly
254.5392°
Eccentric anomaly
254.46°
Mean motion
3.29469 °/min
Orbital period
109.27 mins
BSTAR
-0.00022631
Loading maneuver chart data...
Computing Atmospheric mass density...
Loading historical data...
Loading historical data...
Loading historical data...
Loading historical data...
Loading historical data...
Loading historical data...
Loading historical data...

Documentation

Showing up to 5 results
|